,,,PA_Meas_PMT16A,,PR_Meas_QMR101_102,,RH_Meas_QMH101,,SR_Meas_QMS101,,TA_Meas_QMH101,,GenWind,,GenWind,
date,time,status,PA,status,PR,status,RH,status,SR,status,TA,status,DirAvg,status,SpdAvg,
2011-03-02, 00:00:04,VALID,1009.49,VALID,0,VALID,103.687,VALID,0.105969,VALID,23.5948,VALID,354,VALID,0,
2011-03-02, 00:01:04,VALID,1009.5,VALID,0,VALID,103.695,VALID,0.105969,VALID,23.5948,VALID,354,VALID,0,
2011-03-02, 00:02:04,VALID,1009.49,VALID,0,VALID,103.695,VALID,0,VALID,23.5948,VALID,354,VALID,0,
2011-03-02, 00:03:04,VALID,1009.48,VALID,0,VALID,103.71,VALID,0.105969,VALID,23.5948,VALID,354,VALID,0,
2011-03-02, 00:04:04,VALID,1009.5,VALID,0,VALID,103.657,VALID,0.105969,VALID,23.5948,VALID,354,VALID,0,
2011-03-02, 00:05:04,VALID,1009.48,VALID,0,VALID,103.626,VALID,0,VALID,23.6161,VALID,354,VALID,0,
2011-03-02, 00:06:04,VALID,1009.48,VALID,0,VALID,103.634,VALID,0,VALID,23.6143,VALID,354,VALID,0,
2011-03-02, 00:07:04,VALID,1009.49,VALID,0,VALID,103.626,VALID,0,VALID,23.6143,VALID,354,VALID,0,
2011-03-02, 00:08:04,VALID,1009.48,VALID,0,VALID,103.611,VALID,0,VALID,23.6143,VALID,354,VALID,0,
2011-03-02, 00:09:04,VALID,1009.46,VALID,0,VALID,103.588,VALID,0,VALID,23.6161,VALID,354,VALID,0,
2011-03-02, 00:10:04,VALID,1009.45,VALID,0,VALID,103.573,VALID,0.105969,VALID,23.6161,VALID,354,VALID,0,
2011-03-02, 00:11:04,VALID,1009.45,VALID,0,VALID,103.581,VALID,0,VALID,23.5948,VALID,354,VALID,0,
2011-03-02, 00:12:04,VALID,1009.42,VALID,0,VALID,103.611,VALID,0,VALID,23.5948,VALID,354,VALID,0,
2011-03-02, 00:13:04,VALID,1009.44,VALID,0,VALID,103.611,VALID,0,VALID,23.5948,VALID,354,VALID,0,
2011-03-02, 00:14:04,VALID,1009.39,VALID,0,VALID,103.588,VALID,0,VALID,23.5948,VALID,354,VALID,0,
2011-03-02, 00:15:04,VALID,1009.38,VALID,0,VALID,103.603,VALID,0,VALID,23.6161,VALID,354,VALID,0,
2011-03-02, 00:16:04,VALID,1009.37,VALID,0,VALID,103.573,VALID,0,VALID,23.6161,VALID,354,VALID,0,
2011-03-02, 00:17:04,VALID,1009.39,VALID,0,VALID,103.558,VALID,0.105969,VALID,23.6143,VALID,354,VALID,0,
2011-03-02, 00:18:04,VALID,1009.35,VALID,0,VALID,103.527,VALID,0,VALID,23.6143,VALID,354,VALID,0,
2011-03-02, 00:19:04,VALID,1009.34,VALID,0,VALID,103.504,VALID,0,VALID,23.6356,VALID,354,VALID,0,
2011-03-02, 00:20:04,VALID,1009.3,VALID,0,VALID,103.474,VALID,0,VALID,23.6143,VALID,354,VALID,0,
2011-03-02, 00:21:04,VALID,1009.32,VALID,0,VALID,103.481,VALID,0.105969,VALID,23.6338,VALID,354,VALID,0,
2011-03-02, 00:22:04,VALID,1009.3,VALID,0,VALID,103.459,VALID,0.105969,VALID,23.6143,VALID,354,VALID,0,
2011-03-02, 00:23:04,VALID,1009.26,VALID,0,VALID,103.459,VALID,0,VALID,23.5948,VALID,354,VALID,0,
2011-03-02, 00:24:04,VALID,1009.29,VALID,0,VALID,103.481,VALID,0,VALID,23.5753,VALID,354,VALID,0,
2011-03-02, 00:25:04,VALID,1009.27,VALID,0,VALID,103.512,VALID,0.105969,VALID,23.5948,VALID,354,VALID,0,
2011-03-02, 00:26:04,VALID,1009.27,VALID,0,VALID,103.52,VALID,0,VALID,23.5966,VALID,354,VALID,0,
2011-03-02, 00:27:04,VALID,1009.23,VALID,0,VALID,103.573,VALID,0,VALID,23.5753,VALID,354,VALID,0,
2011-03-02, 00:28:04,VALID,1009.23,VALID,0,VALID,103.581,VALID,0,VALID,23.5558,VALID,354,VALID,0,
2011-03-02, 00:29:04,VALID,1009.21,VALID,0,VALID,103.626,VALID,0.105969,VALID,23.5558,VALID,354,VALID,0,
2011-03-02, 00:30:04,VALID,1009.18,VALID,0,VALID,103.672,VALID,0.105969,VALID,23.5771,VALID,354,VALID,0,
2011-03-02, 00:31:04,VALID,1009.2,VALID,0,VALID,103.71,VALID,0,VALID,23.5363,VALID,354,VALID,0,
2011-03-02, 00:32:04,VALID,1009.19,VALID,0,VALID,103.733,VALID,0.105969,VALID,23.5576,VALID,354,VALID,0,
2011-03-02, 00:33:04,VALID,1009.19,VALID,0,VALID,103.748,VALID,0,VALID,23.5381,VALID,354,VALID,0,
2011-03-02, 00:34:04,VALID,1009.17,VALID,0,VALID,103.741,VALID,0.105969,VALID,23.5169,VALID,354,VALID,0,
2011-03-02, 00:35:04,VALID,1009.16,VALID,0,VALID,103.779,VALID,0,VALID,23.4974,VALID,354,VALID,0,
2011-03-02, 00:36:04,VALID,1009.14,VALID,0,VALID,103.794,VALID,0.105969,VALID,23.4974,VALID,354,VALID,0,
2011-03-02, 00:37:04,VALID,1009.17,VALID,0,VALID,103.832,VALID,0.105969,VALID,23.4779,VALID,354,VALID,0,
2011-03-02, 00:38:04,VALID,1009.15,VALID,0,VALID,103.832,VALID,0,VALID,23.4779,VALID,354,VALID,0,
2011-03-02, 00:39:04,VALID,1009.14,VALID,0,VALID,103.84,VALID,0,VALID,23.4797,VALID,354,VALID,0,
2011-03-02, 00:40:04,VALID,1009.12,VALID,0,VALID,103.878,VALID,0,VALID,23.4602,VALID,354,VALID,0,
2011-03-02, 00:41:04,VALID,1009.13,VALID,0,VALID,103.909,VALID,0,VALID,23.4602,VALID,354,VALID,0,
2011-03-02, 00:42:04,VALID,1009.14,VALID,0,VALID,103.954,VALID,0,VALID,23.4602,VALID,354,VALID,0,
2011-03-02, 00:43:04,VALID,1009.1,VALID,0,VALID,103.977,VALID,0,VALID,23.4815,VALID,354,VALID,0,
2011-03-02, 00:44:04,VALID,1009.11,VALID,0,VALID,103.992,VALID,0,VALID,23.4407,VALID,354,VALID,0,
2011-03-02, 00:45:04,VALID,1009.07,VALID,0,VALID,104,VALID,0,VALID,23.4602,VALID,354,VALID,0,
2011-03-02, 00:46:04,VALID,1009.07,VALID,0,VALID,104,VALID,0,VALID,23.4602,VALID,354,VALID,0,
2011-03-02, 00:47:04,VALID,1009.07,VALID,0,VALID,104,VALID,0,VALID,23.4602,VALID,354,VALID,0,
2011-03-02, 00:48:04,VALID,1009.07,VALID,0,VALID,104,VALID,0,VALID,23.4602,VALID,354,VALID,0,
2011-03-02, 00:49:04,VALID,1009.06,VALID,0,VALID,104,VALID,0,VALID,23.4212,VALID,354,VALID,0,
2011-03-02, 00:50:04,VALID,1009.05,VALID,0,VALID,104,VALID,0,VALID,23.4407,VALID,354,VALID,0,
2011-03-02, 00:51:04,VALID,1009.07,VALID,0,VALID,104,VALID,0,VALID,23.4212,VALID,354,VALID,0,
2011-03-02, 00:52:04,VALID,1009.05,VALID,0,VALID,104,VALID,0,VALID,23.4212,VALID,354,VALID,0,
2011-03-02, 00:53:04,VALID,1009.06,VALID,0,VALID,104,VALID,0,VALID,23.4017,VALID,354,VALID,0,
2011-03-02, 00:54:04,VALID,1009.07,VALID,0,VALID,104,VALID,0,VALID,23.423,VALID,354,VALID,0,
2011-03-02, 00:55:04,VALID,1009.05,VALID,0,VALID,104,VALID,0,VALID,23.4212,VALID,354,VALID,0,
2011-03-02, 00:56:04,VALID,1009.03,VALID,0,VALID,104,VALID,0,VALID,23.4017,VALID,354,VALID,0,
2011-03-02, 00:57:04,VALID,1009.04,VALID,0,VALID,104,VALID,0,VALID,23.4035,VALID,354,VALID,0,
2011-03-02, 00:58:04,VALID,1009.02,VALID,0,VALID,104,VALID,0,VALID,23.3823,VALID,354,VALID,0,
2011-03-02, 00:59:04,VALID,1008.98,VALID,0,VALID,104,VALID,0,VALID,23.3823,VALID,354,VALID,0,
2011-03-02, 01:00:04,VALID,1008.99,VALID,0,VALID,104,VALID,0,VALID,23.4,VALID,354,VALID,0,
2011-03-02, 01:01:04,VALID,1008.97,VALID,0,VALID,104,VALID,0.105969,VALID,23.361,VALID,354,VALID,0,
2011-03-02, 01:02:04,VALID,1008.92,VALID,0,VALID,104,VALID,0,VALID,23.361,VALID,354,VALID,0,
2011-03-02, 01:03:04,VALID,1008.94,VALID,0,VALID,104,VALID,0.105969,VALID,23.361,VALID,354,VALID,0,
2011-03-02, 01:04:04,VALID,1008.9,VALID,0,VALID,104,VALID,0,VALID,23.361,VALID,354,VALID,0,
2011-03-02, 01:05:04,VALID,1008.88,VALID,0,VALID,104,VALID,0,VALID,23.3415,VALID,354,VALID,0,
2011-03-02, 01:06:04,VALID,1008.87,VALID,0,VALID,104,VALID,0,VALID,23.3415,VALID,354,VALID,0,
2011-03-02, 01:07:04,VALID,1008.87,VALID,0,VALID,104,VALID,0,VALID,23.3415,VALID,354,VALID,0,
2011-03-02, 01:08:04,VALID,1008.85,VALID,0,VALID,104,VALID,0.105969,VALID,23.3628,VALID,354,VALID,0,
2011-03-02, 01:09:04,VALID,1008.81,VALID,0,VALID,104,VALID,0,VALID,23.322,VALID,354,VALID,0,
2011-03-02, 01:10:04,VALID,1008.8,VALID,0,VALID,104,VALID,0,VALID,23.322,VALID,354,VALID,0,
2011-03-02, 01:11:04,VALID,1008.77,VALID,0,VALID,104,VALID,0,VALID,23.3026,VALID,354,VALID,0,
2011-03-02, 01:12:04,VALID,1008.76,VALID,0,VALID,104,VALID,0.105969,VALID,23.3433,VALID,354,VALID,0,
2011-03-02, 01:13:04,VALID,1008.73,VALID,0,VALID,104,VALID,0.105969,VALID,23.3238,VALID,354,VALID,0,
2011-03-02, 01:14:04,VALID,1008.72,VALID,0,VALID,104,VALID,0,VALID,23.3043,VALID,354,VALID,0,
2011-03-02, 01:15:04,VALID,1008.73,VALID,0,VALID,104,VALID,0.105969,VALID,23.2831,VALID,354,VALID,0,
2011-03-02, 01:16:04,VALID,1008.71,VALID,0,VALID,104,VALID,0,VALID,23.2831,VALID,354,VALID,0,
2011-03-02, 01:17:04,VALID,1008.67,VALID,0,VALID,104,VALID,0.105969,VALID,23.3043,VALID,354,VALID,0,
2011-03-02, 01:18:04,VALID,1008.68,VALID,0,VALID,104,VALID,0.105969,VALID,23.2831,VALID,354,VALID,0,
2011-03-02, 01:19:04,VALID,1008.68,VALID,0,VALID,104,VALID,0,VALID,23.2636,VALID,354,VALID,0,
2011-03-02, 01:20:04,VALID,1008.67,VALID,0,VALID,104,VALID,0,VALID,23.2636,VALID,354,VALID,0,
2011-03-02, 01:21:04,VALID,1008.66,VALID,0,VALID,104,VALID,0.105969,VALID,23.2636,VALID,354,VALID,0,
2011-03-02, 01:22:04,VALID,1008.66,VALID,0,VALID,104,VALID,0.105969,VALID,23.2441,VALID,354,VALID,0,
2011-03-02, 01:23:04,VALID,1008.66,VALID,0,VALID,104,VALID,0,VALID,23.2654,VALID,354,VALID,0,
2011-03-02, 01:24:04,VALID,1008.65,VALID,0,VALID,104,VALID,0,VALID,23.2459,VALID,354,VALID,0,
2011-03-02, 01:25:04,VALID,1008.66,VALID,0,VALID,104,VALID,0,VALID,23.2654,VALID,354,VALID,0,
2011-03-02, 01:26:04,VALID,1008.64,VALID,0,VALID,104,VALID,0,VALID,23.2459,VALID,354,VALID,0,
2011-03-02, 01:27:04,VALID,1008.61,VALID,0,VALID,104,VALID,0,VALID,23.2459,VALID,354,VALID,0,
2011-03-02, 01:28:04,VALID,1008.6,VALID,0,VALID,104,VALID,0,VALID,23.2246,VALID,354,VALID,0,
2011-03-02, 01:29:04,VALID,1008.59,VALID,0,VALID,104,VALID,0,VALID,23.2264,VALID,354,VALID,0,
2011-03-02, 01:30:04,VALID,1008.6,VALID,0,VALID,104,VALID,0,VALID,23.2264,VALID,354,VALID,0,
2011-03-02, 01:31:04,VALID,1008.57,VALID,0,VALID,104,VALID,0,VALID,23.2069,VALID,354,VALID,0,
2011-03-02, 01:32:04,VALID,1008.56,VALID,0,VALID,104,VALID,0,VALID,23.2051,VALID,354,VALID,0,
2011-03-02, 01:33:04,VALID,1008.51,VALID,0,VALID,104,VALID,0,VALID,23.2264,VALID,354,VALID,0,
2011-03-02, 01:34:04,VALID,1008.52,VALID,0,VALID,104,VALID,0,VALID,23.2069,VALID,354,VALID,0,
2011-03-02, 01:35:04,VALID,1008.52,VALID,0,VALID,104,VALID,0,VALID,23.2087,VALID,354,VALID,0,
2011-03-02, 01:36:04,VALID,1008.51,VALID,0,VALID,104,VALID,0,VALID,23.1874,VALID,354,VALID,0,
2011-03-02, 01:37:04,VALID,1008.51,VALID,0,VALID,104,VALID,0,VALID,23.2069,VALID,354,VALID,0,
2011-03-02, 01:38:04,VALID,1008.52,VALID,0,VALID,104,VALID,0,VALID,23.2069,VALID,354,VALID,0,
2011-03-02, 01:39:04,VALID,1008.49,VALID,0,VALID,104,VALID,0,VALID,23.2069,VALID,354,VALID,0,
2011-03-02, 01:40:04,VALID,1008.47,VALID,0,VALID,104,VALID,0,VALID,23.1874,VALID,354,VALID,0,
2011-03-02, 01:41:04,VALID,1008.49,VALID,0,VALID,104,VALID,0,VALID,23.1874,VALID,354,VALID,0,
2011-03-02, 01:42:04,VALID,1008.46,VALID,0,VALID,104,VALID,0,VALID,23.1874,VALID,354,VALID,0,
2011-03-02, 01:43:04,VALID,1008.43,VALID,0,VALID,104,VALID,0,VALID,23.1874,VALID,354,VALID,0,
2011-03-02, 01:44:04,VALID,1008.46,VALID,0,VALID,104,VALID,0,VALID,23.2087,VALID,354,VALID,0,
2011-03-02, 01:45:04,VALID,1008.44,VALID,0,VALID,104,VALID,0,VALID,23.1679,VALID,354,VALID,0,
2011-03-02, 01:46:04,VALID,1008.44,VALID,0,VALID,104,VALID,0,VALID,23.1892,VALID,354,VALID,0,
2011-03-02, 01:47:04,VALID,1008.44,VALID,0,VALID,104,VALID,0,VALID,23.1679,VALID,354,VALID,0,
2011-03-02, 01:48:04,VALID,1008.44,VALID,0,VALID,104,VALID,0,VALID,23.2087,VALID,354,VALID,0,
2011-03-02, 01:49:04,VALID,1008.42,VALID,0,VALID,104,VALID,0,VALID,23.2087,VALID,354,VALID,0,
2011-03-02, 01:50:04,VALID,1008.42,VALID,0,VALID,104,VALID,0,VALID,23.2104,VALID,354,VALID,0,
2011-03-02, 01:51:04,VALID,1008.43,VALID,0,VALID,104,VALID,0,VALID,23.2087,VALID,354,VALID,0,
2011-03-02, 01:52:04,VALID,1008.41,VALID,0,VALID,104,VALID,0,VALID,23.1874,VALID,354,VALID,0,
2011-03-02, 01:53:04,VALID,1008.42,VALID,0,VALID,104,VALID,0.105969,VALID,23.1857,VALID,354,VALID,0,
2011-03-02, 01:54:04,VALID,1008.4,VALID,0,VALID,104,VALID,0,VALID,23.2264,VALID,354,VALID,0,
2011-03-02, 01:55:04,VALID,1008.4,VALID,0,VALID,104,VALID,0.105969,VALID,23.2051,VALID,354,VALID,0,
2011-03-02, 01:56:04,VALID,1008.38,VALID,0,VALID,104,VALID,0.105969,VALID,23.2069,VALID,354,VALID,0,
2011-03-02, 01:57:04,VALID,1008.38,VALID,0,VALID,104,VALID,0,VALID,23.1857,VALID,354,VALID,0,
2011-03-02, 01:58:04,VALID,1008.34,VALID,0,VALID,104,VALID,0.105969,VALID,23.1857,VALID,354,VALID,0,
2011-03-02, 01:59:04,VALID,1008.34,VALID,0,VALID,104,VALID,0,VALID,23.1874,VALID,354,VALID,0,
2011-03-02, 02:00:04,VALID,1008.33,VALID,0,VALID,104,VALID,0.105969,VALID,23.1874,VALID,354,VALID,0,
2011-03-02, 02:01:04,VALID,1008.31,VALID,0,VALID,104,VALID,0,VALID,23.1662,VALID,354,VALID,0,
2011-03-02, 02:02:04,VALID,1008.29,VALID,0,VALID,104,VALID,0,VALID,23.1874,VALID,354,VALID,0,
2011-03-02, 02:03:04,VALID,1008.28,VALID,0,VALID,104,VALID,0.105969,VALID,23.1662,VALID,354,VALID,0,
2011-03-02, 02:04:04,VALID,1008.26,VALID,0,VALID,104,VALID,0.105969,VALID,23.1467,VALID,354,VALID,0,
2011-03-02, 02:05:04,VALID,1008.27,VALID,0,VALID,104,VALID,0,VALID,23.1467,VALID,354,VALID,0,
2011-03-02, 02:06:04,VALID,1008.26,VALID,0,VALID,104,VALID,0,VALID,23.1662,VALID,354,VALID,0,
2011-03-02, 02:07:04,VALID,1008.26,VALID,0,VALID,104,VALID,0,VALID,23.1662,VALID,354,VALID,0,
2011-03-02, 02:08:04,VALID,1008.24,VALID,0,VALID,104,VALID,0,VALID,23.1679,VALID,354,VALID,0,
2011-03-02, 02:09:04,VALID,1008.22,VALID,0,VALID,104,VALID,0.105969,VALID,23.1662,VALID,354,VALID,0,
2011-03-02, 02:10:04,VALID,1008.24,VALID,0,VALID,104,VALID,0.105969,VALID,23.1662,VALID,354,VALID,0,
2011-03-02, 02:11:04,VALID,1008.24,VALID,0,VALID,104,VALID,0.105969,VALID,23.1874,VALID,354,VALID,0,
2011-03-02, 02:12:04,VALID,1008.21,VALID,0,VALID,104,VALID,0.105969,VALID,23.1857,VALID,354,VALID,0,
2011-03-02, 02:13:04,VALID,1008.19,VALID,0,VALID,104,VALID,0,VALID,23.1874,VALID,354,VALID,0,
2011-03-02, 02:14:04,VALID,1008.19,VALID,0,VALID,104,VALID,0.105969,VALID,23.1662,VALID,354,VALID,0,
2011-03-02, 02:15:04,VALID,1008.19,VALID,0,VALID,104,VALID,0.105969,VALID,23.1679,VALID,354,VALID,0,
2011-03-02, 02:16:04,VALID,1008.18,VALID,0,VALID,104,VALID,0.105969,VALID,23.1874,VALID,354,VALID,0,
2011-03-02, 02:17:04,VALID,1008.13,VALID,0,VALID,104,VALID,0.105969,VALID,23.1874,VALID,354,VALID,0,
2011-03-02, 02:18:04,VALID,1008.12,VALID,0,VALID,104,VALID,0.105969,VALID,23.1467,VALID,354,VALID,0,
2011-03-02, 02:19:04,VALID,1008.13,VALID,0,VALID,104,VALID,0.105969,VALID,23.1662,VALID,354,VALID,0,
2011-03-02, 02:20:04,VALID,1008.11,VALID,0,VALID,104,VALID,0.105969,VALID,23.1467,VALID,354,VALID,0,
2011-03-02, 02:21:04,VALID,1008.1,VALID,0,VALID,104,VALID,0.105969,VALID,23.1662,VALID,354,VALID,0,
2011-03-02, 02:22:04,VALID,1008.07,VALID,0,VALID,104,VALID,0.105969,VALID,23.1874,VALID,354,VALID,0,
2011-03-02, 02:23:04,VALID,1008.07,VALID,0,VALID,104,VALID,0,VALID,23.1874,VALID,354,VALID,0.0253906,
2011-03-02, 02:24:04,VALID,1008.05,VALID,0,VALID,104,VALID,0,VALID,23.1874,VALID,354,VALID,0,
2011-03-02, 02:25:04,VALID,1008.02,VALID,0,VALID,104,VALID,0.105969,VALID,23.1662,VALID,354,VALID,0,
2011-03-02, 02:26:04,VALID,1007.99,VALID,0,VALID,104,VALID,0.105969,VALID,23.1662,VALID,354,VALID,0,
2011-03-02, 02:27:04,VALID,1008,VALID,0,VALID,104,VALID,0,VALID,23.1662,VALID,354,VALID,0,
2011-03-02, 02:28:04,VALID,1007.98,VALID,0,VALID,104,VALID,0.105969,VALID,23.1467,VALID,354,VALID,0,
2011-03-02, 02:29:04,VALID,1007.96,VALID,0,VALID,104,VALID,0.105969,VALID,23.1467,VALID,354,VALID,0,
2011-03-02, 02:30:04,VALID,1007.96,VALID,0,VALID,104,VALID,0.105969,VALID,23.1467,VALID,354,VALID,0,
2011-03-02, 02:31:04,VALID,1007.94,VALID,0,VALID,104,VALID,0.105969,VALID,23.1467,VALID,354,VALID,0,
2011-03-02, 02:32:04,VALID,1007.93,VALID,0,VALID,104,VALID,0,VALID,23.1467,VALID,354,VALID,0,
2011-03-02, 02:33:04,VALID,1007.91,VALID,0,VALID,104,VALID,0.105969,VALID,23.1467,VALID,354,VALID,0,
2011-03-02, 02:34:04,VALID,1007.9,VALID,0,VALID,104,VALID,0,VALID,23.1467,VALID,354,VALID,0,
2011-03-02, 02:35:04,VALID,1007.88,VALID,0,VALID,104,VALID,0,VALID,23.1272,VALID,354,VALID,0,
2011-03-02, 02:36:04,VALID,1007.85,VALID,0,VALID,104,VALID,0.105969,VALID,23.1272,VALID,354,VALID,0,
2011-03-02, 02:37:04,VALID,1007.84,VALID,0,VALID,104,VALID,0.105969,VALID,23.1077,VALID,354,VALID,0,
2011-03-02, 02:38:04,VALID,1007.8,VALID,0,VALID,104,VALID,0,VALID,23.129,VALID,354,VALID,0,
2011-03-02, 02:39:04,VALID,1007.8,VALID,0,VALID,104,VALID,0,VALID,23.129,VALID,354,VALID,0,
2011-03-02, 02:40:04,VALID,1007.81,VALID,0,VALID,104,VALID,0,VALID,23.1502,VALID,354,VALID,0,
2011-03-02, 02:41:04,VALID,1007.8,VALID,0,VALID,104,VALID,0,VALID,23.129,VALID,354,VALID,0,
2011-03-02, 02:42:04,VALID,1007.79,VALID,0,VALID,104,VALID,0,VALID,23.129,VALID,354,VALID,0,
2011-03-02, 02:43:04,VALID,1007.76,VALID,0,VALID,104,VALID,0,VALID,23.129,VALID,354,VALID,0,
2011-03-02, 02:44:04,VALID,1007.77,VALID,0,VALID,104,VALID,0,VALID,23.129,VALID,354,VALID,0,
2011-03-02, 02:45:04,VALID,1007.77,VALID,0,VALID,104,VALID,0,VALID,23.1502,VALID,354,VALID,0,
2011-03-02, 02:46:04,VALID,1007.74,VALID,0,VALID,104,VALID,0,VALID,23.1502,VALID,354,VALID,0,
2011-03-02, 02:47:04,VALID,1007.75,VALID,0,VALID,104,VALID,0,VALID,23.1502,VALID,354,VALID,0,
2011-03-02, 02:48:04,VALID,1007.75,VALID,0,VALID,104,VALID,0,VALID,23.1095,VALID,354,VALID,0,
2011-03-02, 02:49:04,VALID,1007.76,VALID,0,VALID,104,VALID,0,VALID,23.129,VALID,354,VALID,0,
2011-03-02, 02:50:04,VALID,1007.74,VALID,0,VALID,104,VALID,0,VALID,23.1095,VALID,354,VALID,0,
2011-03-02, 02:51:04,VALID,1007.76,VALID,0,VALID,104,VALID,0,VALID,23.1095,VALID,354,VALID,0,
2011-03-02, 02:52:04,VALID,1007.76,VALID,0,VALID,104,VALID,0,VALID,23.1095,VALID,354,VALID,0,
2011-03-02, 02:53:04,VALID,1007.76,VALID,0,VALID,104,VALID,0.105969,VALID,23.1272,VALID,354,VALID,0,
2011-03-02, 02:54:04,VALID,1007.77,VALID,0,VALID,104,VALID,0,VALID,23.1272,VALID,354,VALID,0,
2011-03-02, 02:55:04,VALID,1007.79,VALID,0,VALID,104,VALID,0.105969,VALID,23.1272,VALID,354,VALID,0,
2011-03-02, 02:56:04,VALID,1007.77,VALID,0,VALID,104,VALID,0,VALID,23.1467,VALID,354,VALID,0,
2011-03-02, 02:57:04,VALID,1007.77,VALID,0,VALID,104,VALID,0.105969,VALID,23.1467,VALID,354,VALID,0,
2011-03-02, 02:58:04,VALID,1007.75,VALID,0,VALID,104,VALID,0,VALID,23.1485,VALID,354,VALID,0,
2011-03-02, 02:59:04,VALID,1007.74,VALID,0,VALID,104,VALID,0,VALID,23.129,VALID,354,VALID,0,
2011-03-02, 03:00:04,VALID,1007.75,VALID,0,VALID,104,VALID,0,VALID,23.1077,VALID,354,VALID,0,
2011-03-02, 03:01:04,VALID,1007.73,VALID,0,VALID,104,VALID,0,VALID,23.1077,VALID,355,VALID,0.219922,
2011-03-02, 03:02:04,VALID,1007.7,VALID,0,VALID,104,VALID,0,VALID,23.129,VALID,355,VALID,0,
2011-03-02, 03:03:04,VALID,1007.67,VALID,0,VALID,104,VALID,0.105969,VALID,23.0883,VALID,355,VALID,0,
2011-03-02, 03:04:04,VALID,1007.69,VALID,0,VALID,104,VALID,0,VALID,23.0883,VALID,355,VALID,0,
2011-03-02, 03:05:04,VALID,1007.68,VALID,0,VALID,104,VALID,0,VALID,23.0883,VALID,355,VALID,0,
2011-03-02, 03:06:04,VALID,1007.68,VALID,0,VALID,104,VALID,0.105969,VALID,23.1095,VALID,355,VALID,0,
2011-03-02, 03:07:04,VALID,1007.68,VALID,0,VALID,104,VALID,0.105969,VALID,23.067,VALID,355,VALID,0,
2011-03-02, 03:08:04,VALID,1007.68,VALID,0,VALID,104,VALID,0,VALID,23.09,VALID,355,VALID,0,
2011-03-02, 03:09:04,VALID,1007.67,VALID,0,VALID,104,VALID,0,VALID,23.09,VALID,355,VALID,0,
2011-03-02, 03:10:04,VALID,1007.68,VALID,0,VALID,104,VALID,0,VALID,23.0705,VALID,355,VALID,0,
2011-03-02, 03:11:04,VALID,1007.68,VALID,0,VALID,104,VALID,0,VALID,23.09,VALID,355,VALID,0,
2011-03-02, 03:12:04,VALID,1007.7,VALID,0,VALID,104,VALID,0,VALID,23.0705,VALID,355,VALID,0,
2011-03-02, 03:13:04,VALID,1007.68,VALID,0,VALID,104,VALID,0,VALID,23.0705,VALID,355,VALID,0,
2011-03-02, 03:14:04,VALID,1007.67,VALID,0,VALID,104,VALID,0,VALID,23.0918,VALID,355,VALID,0,
2011-03-02, 03:15:04,VALID,1007.67,VALID,0,VALID,104,VALID,0,VALID,23.0918,VALID,355,VALID,0,
2011-03-02, 03:16:04,VALID,1007.68,VALID,0,VALID,104,VALID,0,VALID,23.1112,VALID,355,VALID,0,
2011-03-02, 03:17:04,VALID,1007.65,VALID,0,VALID,104,VALID,0,VALID,23.09,VALID,355,VALID,0,
2011-03-02, 03:18:04,VALID,1007.67,VALID,0,VALID,104,VALID,0,VALID,23.09,VALID,355,VALID,0,
2011-03-02, 03:19:04,VALID,1007.66,VALID,0,VALID,104,VALID,0,VALID,23.09,VALID,355,VALID,0,
2011-03-02, 03:20:04,VALID,1007.65,VALID,0,VALID,104,VALID,0,VALID,23.09,VALID,355,VALID,0,
2011-03-02, 03:21:04,VALID,1007.67,VALID,0,VALID,104,VALID,0,VALID,23.09,VALID,355,VALID,0,
2011-03-02, 03:22:04,VALID,1007.69,VALID,0,VALID,104,VALID,0,VALID,23.1112,VALID,355,VALID,0,
2011-03-02, 03:23:04,VALID,1007.72,VALID,0,VALID,104,VALID,0.105969,VALID,23.1077,VALID,355,VALID,0,
2011-03-02, 03:24:04,VALID,1007.71,VALID,0,VALID,104,VALID,0,VALID,23.1077,VALID,355,VALID,0,
2011-03-02, 03:25:04,VALID,1007.7,VALID,0,VALID,104,VALID,0.105969,VALID,23.0883,VALID,355,VALID,0,
2011-03-02, 03:26:04,VALID,1007.75,VALID,0,VALID,104,VALID,0,VALID,23.09,VALID,355,VALID,0,
2011-03-02, 03:27:04,VALID,1007.75,VALID,0,VALID,104,VALID,0,VALID,23.0883,VALID,355,VALID,0,
2011-03-02, 03:28:04,VALID,1007.75,VALID,0,VALID,104,VALID,0,VALID,23.09,VALID,355,VALID,0,
2011-03-02, 03:29:04,VALID,1007.77,VALID,0,VALID,104,VALID,0,VALID,23.0883,VALID,355,VALID,0,
2011-03-02, 03:30:04,VALID,1007.75,VALID,0,VALID,104,VALID,0,VALID,23.1095,VALID,355,VALID,0,
2011-03-02, 03:31:04,VALID,1007.76,VALID,0,VALID,104,VALID,0,VALID,23.0883,VALID,355,VALID,0,
2011-03-02, 03:32:04,VALID,1007.76,VALID,0,VALID,104,VALID,0.105969,VALID,23.0883,VALID,355,VALID,0,
2011-03-02, 03:33:04,VALID,1007.78,VALID,0,VALID,104,VALID,0,VALID,23.0688,VALID,355,VALID,0,
2011-03-02, 03:34:04,VALID,1007.78,VALID,0,VALID,104,VALID,0,VALID,23.09,VALID,355,VALID,0,
2011-03-02, 03:35:04,VALID,1007.77,VALID,0,VALID,104,VALID,0,VALID,23.09,VALID,355,VALID,0,
2011-03-02, 03:36:04,VALID,1007.78,VALID,0,VALID,104,VALID,0,VALID,23.0688,VALID,355,VALID,0,
2011-03-02, 03:37:04,VALID,1007.78,VALID,0,VALID,104,VALID,0.105969,VALID,23.0688,VALID,355,VALID,0,
2011-03-02, 03:38:04,VALID,1007.79,VALID,0,VALID,104,VALID,0,VALID,23.09,VALID,355,VALID,0,
2011-03-02, 03:39:04,VALID,1007.78,VALID,0,VALID,104,VALID,0,VALID,23.0493,VALID,355,VALID,0,
2011-03-02, 03:40:04,VALID,1007.79,VALID,0,VALID,104,VALID,0.105969,VALID,23.0493,VALID,355,VALID,0,
2011-03-02, 03:41:04,VALID,1007.76,VALID,0,VALID,104,VALID,0.105969,VALID,23.0688,VALID,355,VALID,0,
2011-03-02, 03:42:04,VALID,1007.8,VALID,0,VALID,104,VALID,0.105969,VALID,23.0493,VALID,355,VALID,0,
2011-03-02, 03:43:04,VALID,1007.79,VALID,0,VALID,104,VALID,0,VALID,23.0688,VALID,355,VALID,0,
2011-03-02, 03:44:04,VALID,1007.78,VALID,0,VALID,104,VALID,0,VALID,23.0493,VALID,355,VALID,0,
2011-03-02, 03:45:04,VALID,1007.77,VALID,0,VALID,104,VALID,0.105969,VALID,23.0688,VALID,355,VALID,0,
2011-03-02, 03:46:04,VALID,1007.82,VALID,0,VALID,104,VALID,0,VALID,23.0688,VALID,355,VALID,0,
2011-03-02, 03:47:04,VALID,1007.79,VALID,0,VALID,104,VALID,0,VALID,23.0883,VALID,355,VALID,0,
2011-03-02, 03:48:04,VALID,1007.8,VALID,0,VALID,104,VALID,0,VALID,23.0883,VALID,355,VALID,0,
2011-03-02, 03:49:04,VALID,1007.79,VALID,0,VALID,104,VALID,0.105969,VALID,23.0883,VALID,355,VALID,0,
2011-03-02, 03:50:04,VALID,1007.78,VALID,0,VALID,104,VALID,0,VALID,23.1095,VALID,355,VALID,0,
2011-03-02, 03:51:04,VALID,1007.83,VALID,0,VALID,104,VALID,0,VALID,23.1095,VALID,355,VALID,0,
2011-03-02, 03:52:04,VALID,1007.8,VALID,0,VALID,104,VALID,0,VALID,23.0883,VALID,355,VALID,0,
2011-03-02, 03:53:04,VALID,1007.8,VALID,0,VALID,104,VALID,0,VALID,23.09,VALID,355,VALID,0,
2011-03-02, 03:54:04,VALID,1007.81,VALID,0,VALID,104,VALID,0,VALID,23.09,VALID,355,VALID,0,
2011-03-02, 03:55:04,VALID,1007.8,VALID,0,VALID,104,VALID,0,VALID,23.09,VALID,355,VALID,0,
2011-03-02, 03:56:04,VALID,1007.85,VALID,0,VALID,104,VALID,0,VALID,23.1112,VALID,355,VALID,0,
2011-03-02, 03:57:04,VALID,1007.84,VALID,0,VALID,104,VALID,0,VALID,23.09,VALID,355,VALID,0,
2011-03-02, 03:58:04,VALID,1007.86,VALID,0,VALID,104,VALID,0,VALID,23.1112,VALID,355,VALID,0,
2011-03-02, 03:59:04,VALID,1007.87,VALID,0,VALID,104,VALID,0,VALID,23.09,VALID,355,VALID,0,
2011-03-02, 04:00:04,VALID,1007.86,VALID,0,VALID,104,VALID,0,VALID,23.1112,VALID,355,VALID,0,
2011-03-02, 04:01:04,VALID,1007.89,VALID,0,VALID,104,VALID,0,VALID,23.1112,VALID,355,VALID,0,
2011-03-02, 04:02:04,VALID,1007.89,VALID,0,VALID,104,VALID,0,VALID,23.1112,VALID,355,VALID,0,
2011-03-02, 04:03:04,VALID,1007.89,VALID,0,VALID,104,VALID,0,VALID,23.1112,VALID,355,VALID,0,